Regional Weather Roundup
Issued by NWS

Home | Current Version | Previous Version | Graphics & Text | Print | Product List | Glossary On
Versions: 1 2 3 4 5 6 7 8 9 10 11 12 13 14 15 16 17 18 19 20 21 22 23 24 25 26 27 28 29 30 31 32 33 34 35 36 37 38 39 40 41 42 43 44 45 46 47 48 49 50
000
ASUS43 KOAX 212002
RWRNE

WEATHER ROUNDUP FOR NEBRASKA
NATIONAL WEATHER SERVICE OMAHA NE
300 PM CDT MON AUG 21 2017

NOTES: SATELLITE DATA IS BEING USED TO AUGMENT CLOUD COVER ABOVE
       12000 FEET.
       "FAIR" INDICATES FEW OR NO CLOUDS BELOW 12,000 FEET WITH NO
       SIGNIFICANT WEATHER AND/OR OBSTRUCTIONS TO VISIBILITY.


NEZ001>004-019>022-054>056-212100-
NEBRASKA PANHANDLE

CITY           SKY/WX    TMP DP  RH WIND       PRES   REMARKS
SCOTTSBLUFF    SUNNY     82  53  36 N13       30.13R
ALLIANCE       SUNNY     78  57  48 N21G26    30.10S
CHADRON        SUNNY     80  53  39 NE10      30.11S
GORDON         FAIR      77  60  56 N13G18    30.09S
SIDNEY         SUNNY     81  61  50 N22G29    30.12R
$$

NEZ057>060-069>072-079>082-212100-
SOUTHWEST NEBRASKA

CITY           SKY/WX    TMP DP  RH WIND       PRES   REMARKS
NORTH PLATTE   CLOUDY    86  71  60 NE10      29.98R HX  91
IMPERIAL       MOSUNNY   87  68  52 N12G21    29.99R HX  90
LEXINGTON      MOSUNNY   85  67  53 SW9G20    29.97R
MCCOOK         PTSUNNY   84  64  50 SW14      29.95R
OGALLALA       PTSUNNY   85  67  55 N14       30.02R
$$

NEZ005>010-023>029-035>040-094-212100-
NORTH CENTRAL NEBRASKA

CITY           SKY/WX    TMP DP  RH WIND       PRES   REMARKS
VALENTINE      CLOUDY    78  62  57 NW7       30.01R
AINSWORTH      CLOUDY    71  66  85 CALM      30.01S
BROKEN BOW     PTSUNNY   82  70  66 N16       29.97R
O`NEILL        CLOUDY    72  66  81 E14       29.97F
ORD            CLOUDY    79  70  74 N10       29.94R
THEDFORD       CLOUDY    73  66  78 NE18G24   30.03R
$$

NEZ041-046>049-061>064-073>077-083>087-212100-
SOUTH CENTRAL NEBRASKA

CITY           SKY/WX    TMP DP  RH WIND       PRES   REMARKS
GRAND ISLAND   MOSUNNY   87  68  52 SW18G30   29.95R HX  90
AURORA         MOSUNNY   83  70  63 S15       29.95R
HASTINGS       MOSUNNY   86  67  52 S10G24    29.96R
HEBRON         CLOUDY    85  69  57 S13       29.96S
HOLDREGE       CLOUDY    81  64  57 S8        29.96S
KEARNEY        SUNNY     85  68  56 S16       29.96R
$$

NEZ011>018-030>034-042>045-212100-
NORTHEAST NEBRASKA

CITY           SKY/WX    TMP DP  RH WIND       PRES   REMARKS
NORFOLK        CLOUDY    73  62  68 N29G36    30.02R
ALBION         MOSUNNY   85  73  65 SW9       29.96R HX  91
BLAIR          CLOUDY    78  71  77 S17       29.95F
COLUMBUS       SUNNY     84  72  67 S20G25    29.93F
FREMONT        CLOUDY    81  71  71 S16G25    29.94S
TEKAMAH        MOSUNNY   82  70  66 S17G26    29.93R
WAYNE          RAIN      68  65  91 N10G28    30.02R
$$

NEZ050>053-065>068-078-088>093-212100-
SOUTHEAST NEBRASKA

CITY           SKY/WX    TMP DP  RH WIND       PRES   REMARKS
LINCOLN        PTSUNNY   84  71  65 S22G28    29.94F
OMAHA EPPLEY   CLOUDY    79  69  71 S20G28    29.96R
BEATRICE       PTSUNNY   83  70  64 S15G22    29.96S
FALLS CITY     CLOUDY    83  71  67 S7        29.95F
NEBRASKA CITY  PTSUNNY   81  78  89 S16       29.96F HX  90
PLATTSMOUTH    CLOUDY    78  71  77 S13G24    29.96F
$$

NEZ044-045-051>053-067-212100-
OMAHA AREA

CITY           SKY/WX    TMP DP  RH WIND       PRES   REMARKS
OMAHA EPPLEY   CLOUDY    79  69  71 S20G28    29.96R
BLAIR          CLOUDY    78  71  77 S17       29.95F
FREMONT        CLOUDY    81  71  71 S16G25    29.94S
MILLARD        CLOUDY    79  72  78 S14       29.96S
OFFUTT AFB     CLOUDY    80  71  71 SE18      29.94F
PLATTSMOUTH    CLOUDY    78  71  77 S13G24    29.96F
WAHOO          FAIR      80  74  82 S15       29.95S
$$



USA.gov is the U.S. government's official web portal to all federal, state and local government web resources and services.